Flag for Mauritania Weather past 2 weeks in Nouadhibou, Mauritania

Now
64 °F

Clear.


Feels Like: 64 °F
Forecast: 63 / 79 °F
Wind: 16 mph from North

Location: Nouadhibou Airport

Current Time: Apr 27, 2015 at 9:04:34 AM

Latest Report: Apr 27, 2015 at 8:00 AM


Visibility: 5 mi

Pressure: 29.92 "Hg

Humidity: 83%

Dew point: 59 °F

Location of NouadhibouLocation

Historic Weather in Nouadhibou — Graph

°F

Nouadhibou temperature yesterday

Maximum temperature yesterday: 75 °F (at 11:00 AM)
Minimum temperature yesterday: 63 °F (at 3:00 AM)
Average temperature yesterday: 68 °F

Past Weeks' High & Low Weather Summary

 TemperatureHumidityPressure
High79 °F (Apr 14, 1:00 PM)94% (Apr 19, 6:00 AM)30.07 "Hg (Apr 19, 6:00 AM)
Low59 °F (Apr 19, 6:00 AM)39% (Apr 16, 12:00 PM)29.86 "Hg (Apr 16, 5:00 PM)
Average67 °F74%29.96 "Hg
* Reported Apr 12 8:00 AM — Apr 27 8:00 AM, Nouadhibou, Weather by CustomWeather, © 2015

Note: Actual official high and low records may vary slightly from our data, if they occured in-between our weather recording intervals... More about our weather records

Advertising

Nouadhibou weather history for previous 24 hours

 ConditionsComfort  
Time TempWeatherWind HumidityBarometerVisibility
8:00 AM
Mon, Apr 27
64 °FClear.16 mph83%29.92 "Hg5 mi
7:00 AM63 °FPassing clouds.17 mph88%29.92 "Hg5 mi
6:00 AM63 °FMild.No wind88%29.92 "HgN/A
5:00 AM63 °FPassing clouds.16 mph88%29.92 "Hg5 mi
3:00 AM64 °FPassing clouds.20 mph83%29.92 "Hg5 mi
2:00 AM64 °FPassing clouds.18 mph83%29.92 "Hg5 mi
1:00 AM64 °FPassing clouds.18 mph83%29.95 "Hg5 mi
12:00 AM64 °FClear.20 mph83%29.98 "Hg5 mi
11:00 PM
Sun, Apr 26
64 °FClear.17 mph83%29.98 "Hg5 mi
10:00 PM66 °FSandstorm.18 mph78%29.98 "Hg4 mi
9:00 PM66 °FSandstorm.20 mph78%29.95 "Hg4 mi
8:00 PM66 °FSandstorm.21 mph78%29.95 "Hg4 mi
7:00 PM68 °FSandstorm.21 mph73%29.95 "Hg4 mi
6:00 PM68 °FSandstorm.23 mph78%29.92 "Hg4 mi
5:00 PM70 °FSandstorm.23 mph73%29.92 "Hg4 mi
4:00 PM72 °FSandstorm.21 mph69%29.92 "Hg4 mi
3:00 PM72 °FClear.18 mph69%30.01 "Hg4 mi
2:00 PM72 °FClear.20 mph69%29.98 "Hg4 mi
1:00 PM72 °FClear.20 mph69%29.98 "Hg4 mi
12:00 PM73 °FClear.16 mph65%30.01 "Hg5 mi
11:00 AM75 °FPassing clouds.23 mph57%30.01 "Hg5 mi
10:00 AM70 °FPassing clouds.21 mph69%30.01 "Hg5 mi
9:00 AM66 °FClear.20 mph83%30.01 "Hg5 mi
Weather by CustomWeather, © 2015

See weather overviewHow to use our weather pages